Weather History for Rome, GA

Change the Weather History Date:

Tuesday, January 29, 2013

  Actual Average Record
Temperature  
Mean Temperature 54 °F 42 °F  
Max Temperature 70 °F 53 °F 73 °F (2002)
Min Temperature 37 °F 31 °F 8 °F (2014)
Degree Days  
Heating Degree Days 12 23  
Month to date heating degree days 694  
Since 1 July heating degree days 1994  
Growing Degree Days 4 (Base 50)    
Moisture  
Dew Point 45 °F    
Average Humidity 94    
Maximum Humidity 100    
Minimum Humidity 65    
Precipitation  
Precipitation 0.00 in 0.19 in 1.23 in (2003)
Month to date precipitation 4.42  
Year to date precipitation 4.42  
Snow  
Snow 0.00 in - - ()
Month to date snowfall  
Since 1 July snowfall  
Snow Depth -    
Sea Level Pressure  
Sea Level Pressure 30.18 in    
Wind  
Wind Speed 0 mph (East)    
Max Wind Speed 8 mph    
Max Gust Speed -    
Visibility 3 miles    
Events Fog    
T = Trace of Precipitation, MM = Missing Value Source: NWS Daily Summary

Daily Weather History Graph

Daily Weather History Graph

Search for Another Location

Airport:

Trip Planner

Search our weather history database for the weather conditions in past years. The results will help you decide how hot, cold, wet, or windy it might be!

Date:

Astronomy

Jan. 29, 2013 Rise Set
Actual Time 7:40 AM EST 6:07 PM EST
Civil Twilight 7:13 AM EST 6:34 PM EST
Nautical Twilight 6:43 AM EST 7:04 PM EST
Astronomical Twilight 6:13 AM EST 7:34 PM EST
Moon 8:53 PM EST (1/29) 8:45 AM EST (1/29)
Length of Visible Light 11h 20m
Length of Day
10h 27m
Waning Gibbous, 94% of the Moon is Illuminated
Jan 29
Waning Gibbous
Feb 3
Last Quarter
Feb 10
New
Feb 17
First Quarter
Feb 25
Full

Hourly Weather History & Observations

Time (EST) Temp. Windchill Dew Point Humidity Pressure Visibility Wind Dir Wind Speed Gust Speed Precip Events Conditions
12:53 AM 39.9 °F - 39.0 °F 97% 30.25 in 3.0 mi Calm Calm - N/A   Partly Cloudy
1:13 AM 39.2 °F - 39.2 °F 100% 30.25 in 3.0 mi Calm Calm - N/A   Mostly Cloudy
1:29 AM 39.2 °F - 39.2 °F 100% 30.25 in 4.0 mi Calm Calm - N/A   Scattered Clouds
1:53 AM 39.0 °F - 37.9 °F 96% 30.24 in 4.0 mi Calm Calm - N/A   Partly Cloudy
2:08 AM 39.2 °F - 37.4 °F 93% 30.24 in 3.0 mi Calm Calm - N/A   Mostly Cloudy
2:38 AM 39.2 °F - 37.4 °F 93% 30.24 in 5.0 mi Calm Calm - N/A   Scattered Clouds
2:53 AM 39.0 °F - 37.9 °F 96% 30.23 in 4.0 mi Calm Calm - N/A   Clear
3:53 AM 39.0 °F - 37.0 °F 93% 30.22 in 4.0 mi Calm Calm - N/A   Scattered Clouds
4:53 AM 39.9 °F - 39.0 °F 97% 30.20 in 4.0 mi Calm Calm - N/A   Mostly Cloudy
5:53 AM 37.9 °F - 37.9 °F 100% 30.20 in 4.0 mi Calm Calm - N/A   Partly Cloudy
6:15 AM 39.2 °F - 37.4 °F 93% 30.20 in 4.0 mi Calm Calm - N/A   Mostly Cloudy
6:53 AM 41.0 °F - 39.9 °F 96% 30.19 in 4.0 mi Calm Calm - N/A   Overcast
7:19 AM 42.8 °F - 41.0 °F 93% 30.19 in 4.0 mi Calm Calm - N/A   Overcast
7:53 AM 44.1 °F - 42.1 °F 93% 30.18 in 3.0 mi Calm Calm - N/A   Overcast
8:00 AM 42.8 °F 41.1 °F 42.8 °F 100% 30.18 in 2.5 mi North 3.5 mph - N/A   Overcast
8:42 AM 46.4 °F - 44.6 °F 93% 30.19 in 3.0 mi Calm Calm - N/A   Overcast
8:53 AM 46.0 °F - 45.0 °F 96% 30.18 in 3.0 mi Calm Calm - N/A   Overcast
9:00 AM 46.4 °F - 44.6 °F 93% 30.18 in 3.0 mi Calm Calm - N/A   Overcast
9:28 AM 48.2 °F - 46.4 °F 93% 30.19 in 1.5 mi Calm Calm - N/A   Overcast
9:38 AM 48.2 °F - 48.2 °F 100% 30.19 in 0.5 mi Calm Calm - N/A Fog Fog
9:46 AM 48.2 °F - 48.2 °F 100% 30.19 in 0.2 mi Calm Calm - N/A Fog Fog
9:53 AM 48.9 °F - 48.9 °F 100% 30.19 in 0.2 mi Calm Calm - N/A Fog Fog
10:53 AM 50.0 °F - 50.0 °F 100% 30.18 in 0.2 mi Calm Calm - N/A Fog Fog
11:31 AM 51.8 °F - 51.8 °F 100% 30.17 in 0.5 mi Calm Calm - N/A Fog Fog
11:43 AM 53.6 °F - 51.8 °F 94% 30.16 in 1.2 mi Calm Calm - N/A   Overcast
11:53 AM 53.1 °F - 53.1 °F 100% 30.14 in 1.5 mi Calm Calm - N/A   Overcast
12:04 PM 53.6 °F - 53.6 °F 100% 30.14 in 2.5 mi Calm Calm - N/A   Overcast
12:11 PM 55.4 °F - 53.6 °F 94% 30.13 in 2.5 mi Calm Calm - N/A   Overcast
12:20 PM 57.2 °F - 53.6 °F 88% 30.12 in 3.0 mi East 3.5 mph - N/A   Overcast
12:53 PM 62.1 °F - 55.0 °F 78% 30.09 in 5.0 mi Calm Calm - N/A   Haze
1:53 PM 70.0 °F - 57.9 °F 65% 30.04 in 10.0 mi South 8.1 mph - N/A   Overcast
2:53 PM 70.0 °F - 59.0 °F 68% 30.01 in 10.0 mi Calm Calm - N/A   Overcast